Weather in Yanikoy

Russia / The Kabardino-Balkar Republic     43°32′40″N   43°30′12″E
В апреле 2022 года жителям России запретили посещать сайт meteo.paraplan.net по решению Генеральной прокуратуры. Аудитория сайта уменьшилась в 10 раз. Владельцы сайта не видят смысла в поддержке погодного сервера в таких условиях. Сайт будет закрыт в октябре.
temp.,
°C
wind,
m/s
gust,
m/s
humid.,
%
clouds,
%
prec.,
mm/h
press.,
hPa
HPBL,
m
4 october, tue
tue400:00+12se1291100 0.0 101595
03:00+12e1195100 0.0 101480
06:00+11nne119761 0.4 101455
09:00+14e118317 0.5 1014343
12:00+19ene326031 0.0 1014820
15:00+19ne316049 0.2 1015837
18:00+14wnw118349 0.2 101811
21:00+14wsw118315 0.2 101915
5 october, wed
wed500:00+13sw2287100 0.0 101918
03:00+12sw11893 0.0 102011
06:00+11ssw11918 0.0 101912
09:00+17nne21705 0.0 1019486
12:00+17n4472100 0.1 1021819
15:00+13n3484100 0.8 1023440
18:00+13se1187100 0.1 102545
21:00+12ene119291 0.1 102594
6 october, thu
thu600:00+12e119498 0.0 1025147
03:00+11ene1298100 0.2 1024217
06:00+11ene1299100 0.4 1024168
09:00+11ene1299100 1.9 1024202
12:00+11ene2399100 1.7 1024372
15:00+10ne2399100 3.3 1024297
18:00+10ene1299100 1.9 1026197
21:00+10se129696 2.0 1026155
7 october, fri
fri700:00+9e1110099 0.0 1026117
03:00+10e1199100 0.0 1025111
06:00+10ese129998 0.0 1025126
09:00+10e2297100 0.1 1025260
12:00+10ene2297100 0.1 1025329
15:00+10e1296100 0.2 1025245
18:00+10se1295100 0.1 1025100
21:00+10se129492 0.1 102585
8 october, sat
sat800:00+10se129395 0.0 102473
03:00+10ese1295100 0.0 1024114
06:00+10e1298100 0.0 1023172
09:00+10e2295100 0.1 1023263
12:00+11e2393100 0.1 1022355
15:00+11ese1291100 0.1 1020339
18:00+11wsw1190100 0.0 102026
21:00+11ene1190100 0.0 101931